Weather History for Orange, MA

Change the Weather History Date:

Saturday, March 30, 2013

  Actual Average Record
Temperature  
Mean Temperature 40 °F -  
Max Temperature 55 °F 45 °F 79 °F (1998)
Min Temperature 26 °F 26 °F 12 °F (2008)
Degree Days  
Heating Degree Days 25    
Moisture  
Dew Point 21 °F    
Average Humidity 55    
Maximum Humidity 96    
Minimum Humidity 20    
Precipitation  
Precipitation 0.00 in - - ()
Sea Level Pressure  
Sea Level Pressure 30.07 in    
Wind  
Wind Speed 2 mph (NW)    
Max Wind Speed 10 mph    
Max Gust Speed 21 mph    
Visibility 10 miles    
Events      
Averages and records for this station are not official NWS values.
T = Trace of Precipitation, MM = Missing Value Source: NWS Daily Summary

Daily Weather History Graph

Daily Weather History Graph

Search for Another Location

Airport:

Trip Planner

Search our weather history database for the weather conditions in past years. The results will help you decide how hot, cold, wet, or windy it might be!

Date:

Astronomy

Mar. 30, 2013 Rise Set
Actual Time 6:34 AM EDT 7:13 PM EDT
Civil Twilight 6:06 AM EDT 7:41 PM EDT
Nautical Twilight 5:32 AM EDT 8:15 PM EDT
Astronomical Twilight 4:58 AM EDT 8:50 PM EDT
Moon 11:22 PM EDT (3/30) 8:22 AM EDT (3/30)
Length of Visible Light 13h 35m
Length of Day
12h 38m
Waning Gibbous, 86% of the Moon is Illuminated
Mar 30
Waning Gibbous
Apr 3
Last Quarter
Apr 10
New
Apr 18
First Quarter
Apr 25
Full

Hourly Weather History & Observations

Time (EDT) Temp. Windchill Dew Point Humidity Pressure Visibility Wind Dir Wind Speed Gust Speed Precip Events Conditions
12:52 AM 37.9 °F - 30.0 °F 73% 30.07 in 10.0 mi Calm Calm - N/A   Overcast
1:52 AM 35.1 °F - 28.9 °F 78% 30.07 in 10.0 mi Calm Calm - N/A   Mostly Cloudy
2:52 AM 33.1 °F - 28.9 °F 85% 30.08 in 10.0 mi Calm Calm - N/A   Clear
3:52 AM 30.0 °F - 27.0 °F 88% 30.07 in 10.0 mi Calm Calm - N/A   Partly Cloudy
4:52 AM 27.0 °F - 26.1 °F 96% 30.08 in 10.0 mi Calm Calm - N/A   Partly Cloudy
5:52 AM 27.0 °F - 25.0 °F 92% 30.09 in 10.0 mi Calm Calm - N/A   Clear
6:52 AM 26.1 °F - 24.1 °F 92% 30.10 in 8.0 mi Calm Calm - N/A   Clear
7:52 AM 30.0 °F - 28.0 °F 92% 30.11 in 9.0 mi Calm Calm - N/A   Clear
8:52 AM 37.0 °F - 28.9 °F 73% 30.11 in 10.0 mi Calm Calm - N/A   Clear
9:52 AM 46.0 °F 43.1 °F 25.0 °F 44% 30.10 in 10.0 mi North 5.8 mph - N/A   Clear
10:52 AM 48.9 °F - 19.0 °F 31% 30.09 in 10.0 mi NW 10.4 mph - N/A   Clear
11:52 AM 50.0 °F - 16.0 °F 26% 30.08 in 10.0 mi NNE 8.1 mph - N/A   Partly Cloudy
12:52 PM 51.1 °F - 18.0 °F 27% 30.06 in 10.0 mi Variable 5.8 mph - N/A   Partly Cloudy
1:52 PM 51.1 °F - 14.0 °F 23% 30.05 in 10.0 mi North 8.1 mph - N/A   Partly Cloudy
2:52 PM 54.0 °F - 14.0 °F 21% 30.03 in 10.0 mi NNW 6.9 mph 20.7 mph N/A   Partly Cloudy
3:40 PM 53.6 °F - 14.0 °F 21% 30.01 in 10.0 mi West 9.2 mph - N/A   Clear
3:52 PM 53.1 °F - 15.1 °F 22% 30.03 in 10.0 mi NNW 10.4 mph 18.4 mph N/A   Scattered Clouds
4:52 PM 54.0 °F - 12.9 °F 20% 30.02 in 10.0 mi North 8.1 mph 19.6 mph N/A   Clear
5:52 PM 52.0 °F - 14.0 °F 22% 30.04 in 10.0 mi WNW 9.2 mph - N/A   Clear
6:52 PM 50.0 °F - 15.1 °F 25% 30.05 in 10.0 mi WNW 6.9 mph - N/A   Clear
7:52 PM 39.9 °F 37.8 °F 21.0 °F 47% 30.07 in 10.0 mi SSW 3.5 mph - N/A   Clear
8:52 PM 36.0 °F - 21.0 °F 55% 30.10 in 10.0 mi Calm Calm - N/A   Clear
9:52 PM 32.0 °F - 21.9 °F 66% 30.11 in 9.0 mi Calm Calm - N/A   Clear
10:52 PM 30.0 °F - 21.9 °F 72% 30.11 in 10.0 mi Calm Calm - N/A   Clear
11:52 PM 28.0 °F - 21.9 °F 78% 30.12 in 10.0 mi Calm Calm - N/A   Clear